RYR1234 EGNM-EIDW

Flight info

Callsign RYR1234
Flight time 0h 44m
Altitude 24000
Route NELSA DCT CROFT Y70 KOLID L70 PENIL L28 LELDO/N0435F280 M145 BAGSO BAGSO3R
Aircraft B38M/M-SDE1FGHILORVWXY/HB1

Departure

Time 2026-05-04 00:43
Airport Leeds Bradford Airport (EGNM)

Arrival

Time 2026-05-04 01:28
Airport Dublin Airport (EIDW)
Time Latitude Longitude Altitude Speed Heading
2026-05-04 00:05 53.86866 -1.65693 668 ft 0 kts
2026-05-04 00:11 53.86879 -1.65691 668 ft 0 kts
2026-05-04 00:13 53.86878 -1.65691 668 ft 0 kts
2026-05-04 00:17 53.86850 -1.65694 667 ft 5 kts 22°
2026-05-04 00:18 53.86817 -1.65799 670 ft 9 kts 84°
2026-05-04 00:18 53.86816 -1.65819 670 ft 2 kts 90°
2026-05-04 00:19 53.86816 -1.65812 670 ft 0 kts 90°
2026-05-04 00:29 53.86816 -1.65813 670 ft 0 kts 90°
2026-05-04 00:34 53.86816 -1.65772 670 ft 9 kts 90°
2026-05-04 00:34 53.86815 -1.65628 667 ft 19 kts 90°
2026-05-04 00:34 53.86790 -1.65401 661 ft 4 kts 138°
2026-05-04 00:35 53.86784 -1.65398 661 ft 4 kts 165°
2026-05-04 00:35 53.86730 -1.65410 663 ft 10 kts 191°
2026-05-04 00:35 53.86638 -1.65424 664 ft 15 kts 184°
2026-05-04 00:35 53.86542 -1.65435 666 ft 13 kts 183°
2026-05-04 00:36 53.86462 -1.65443 668 ft 10 kts 183°
2026-05-04 00:36 53.86429 -1.65446 669 ft 0 kts 184°
2026-05-04 00:38 53.86423 -1.65447 669 ft 4 kts 184°
2026-05-04 00:38 53.86417 -1.65447 669 ft 0 kts 184°
2026-05-04 00:41 53.86293 -1.65460 666 ft 32 kts 184°
2026-05-04 00:41 53.86070 -1.65284 662 ft 40 kts 132°
2026-05-04 00:41 53.85923 -1.64985 656 ft 12 kts 117°
2026-05-04 00:42 53.85882 -1.64899 654 ft 7 kts 180°
2026-05-04 00:42 53.85871 -1.64925 655 ft 8 kts 273°
2026-05-04 00:42 53.85930 -1.65039 659 ft 16 kts 318°
2026-05-04 00:42 53.86092 -1.65292 663 ft 62 kts 317°
2026-05-04 00:43 53.86612 -1.66092 671 ft 138 kts 317°
2026-05-04 00:43 53.87467 -1.67405 870 ft 180 kts 320°
2026-05-04 00:43 53.88048 -1.69286 1716 ft 200 kts 278°
2026-05-04 00:43 53.88101 -1.71833 2261 ft 231 kts 282°
2026-05-04 00:44 53.88779 -1.74431 2823 ft 256 kts 304°
2026-05-04 00:44 53.89553 -1.77358 3292 ft 292 kts 284°
2026-05-04 00:44 53.89485 -1.80937 3665 ft 318 kts 256°
2026-05-04 00:44 53.88962 -1.84286 5502 ft 264 kts 255°
2026-05-04 00:45 53.88457 -1.87005 7306 ft 237 kts 245°
2026-05-04 00:45 53.87387 -1.89253 7812 ft 258 kts 217°
2026-05-04 00:45 53.85796 -1.90859 8291 ft 274 kts 206°
2026-05-04 00:45 53.84083 -1.92266 8722 ft 279 kts 217°
2026-05-04 00:46 53.82930 -1.94846 9497 ft 275 kts 252°
2026-05-04 00:46 53.82806 -1.98082 10231 ft 282 kts 284°
2026-05-04 00:46 53.83667 -2.01061 10709 ft 299 kts 309°
2026-05-04 00:46 53.85202 -2.03691 11094 ft 318 kts 310°
2026-05-04 00:47 53.86383 -2.06937 11539 ft 332 kts 291°
2026-05-04 00:47 53.86899 -2.10741 12049 ft 343 kts 272°
2026-05-04 00:47 53.86700 -2.14802 12634 ft 352 kts 264°
2026-05-04 00:47 53.86451 -2.18941 13422 ft 355 kts 265°
2026-05-04 00:48 53.86212 -2.23128 14098 ft 359 kts 265°
2026-05-04 00:48 53.85975 -2.27360 14772 ft 362 kts 265°
2026-05-04 00:48 53.85740 -2.31617 15432 ft 364 kts 265°
2026-05-04 00:48 53.85502 -2.35917 16013 ft 370 kts 265°
2026-05-04 00:49 53.85261 -2.40272 16653 ft 372 kts 265°
2026-05-04 00:49 53.85014 -2.44664 17209 ft 377 kts 265°
2026-05-04 00:49 53.84765 -2.49114 17478 ft 380 kts 265°
2026-05-04 00:49 53.84515 -2.53550 17903 ft 380 kts 265°
2026-05-04 00:50 53.84255 -2.58027 18476 ft 384 kts 265°
2026-05-04 00:50 53.83996 -2.62530 18958 ft 387 kts 265°
2026-05-04 00:50 53.83731 -2.67092 19366 ft 393 kts 265°
2026-05-04 00:50 53.83462 -2.71719 19911 ft 395 kts 265°
2026-05-04 00:51 53.83189 -2.76367 20375 ft 399 kts 265°
2026-05-04 00:51 53.82912 -2.81058 20876 ft 401 kts 265°
2026-05-04 00:51 53.82632 -2.85761 21366 ft 404 kts 265°
2026-05-04 00:51 53.82348 -2.90507 21821 ft 407 kts 265°
2026-05-04 00:52 53.82064 -2.95207 22282 ft 410 kts 265°
2026-05-04 00:52 53.81772 -3.00013 22744 ft 413 kts 264°
2026-05-04 00:52 53.81476 -3.04851 23219 ft 415 kts 264°
2026-05-04 00:52 53.81175 -3.09739 23643 ft 418 kts 265°
2026-05-04 00:53 53.80871 -3.14658 23915 ft 423 kts 265°
2026-05-04 00:53 53.80561 -3.19638 23979 ft 431 kts 265°
2026-05-04 00:53 53.80246 -3.24724 23983 ft 438 kts 265°
2026-05-04 00:53 53.79922 -3.29900 23986 ft 444 kts 265°
2026-05-04 00:54 53.79592 -3.35092 24002 ft 445 kts 265°
2026-05-04 00:54 53.79261 -3.40248 23998 ft 444 kts 265°
2026-05-04 00:54 53.78925 -3.45438 24000 ft 443 kts 264°
2026-05-04 00:54 53.78586 -3.50616 24015 ft 444 kts 265°
2026-05-04 00:55 53.78245 -3.55825 24005 ft 445 kts 264°
2026-05-04 00:55 53.77903 -3.61016 24005 ft 444 kts 264°
2026-05-04 00:55 53.77558 -3.66195 24006 ft 444 kts 264°
2026-05-04 00:55 53.77208 -3.71404 24001 ft 445 kts 264°
2026-05-04 00:56 53.76858 -3.76606 24009 ft 445 kts 264°
2026-05-04 00:56 53.76506 -3.81789 24005 ft 445 kts 264°
2026-05-04 00:56 53.76152 -3.86982 23658 ft 444 kts 264°
2026-05-04 00:56 53.75797 -3.92299 21846 ft 467 kts 264°
2026-05-04 00:57 53.75427 -3.97780 20595 ft 472 kts 264°
2026-05-04 00:57 53.75049 -4.03349 19028 ft 485 kts 264°
2026-05-04 00:57 53.74658 -4.08981 17496 ft 493 kts 264°
2026-05-04 00:57 53.74241 -4.14758 15929 ft 498 kts 264°
2026-05-04 00:58 53.73812 -4.20565 14456 ft 500 kts 263°
2026-05-04 00:58 53.73392 -4.26366 12949 ft 500 kts 264°
2026-05-04 00:58 53.72972 -4.32199 11434 ft 499 kts 264°
2026-05-04 00:58 53.72552 -4.38009 10000 ft 497 kts 263°
2026-05-04 00:59 53.72131 -4.43786 8768 ft 492 kts 263°
2026-05-04 00:59 53.71714 -4.49353 8692 ft 462 kts 264°
2026-05-04 00:59 53.71325 -4.54572 8689 ft 436 kts 264°
2026-05-04 00:59 53.70967 -4.59525 8664 ft 414 kts 264°
2026-05-04 01:00 53.70617 -4.64196 8636 ft 395 kts 264°
2026-05-04 01:00 53.70271 -4.68701 8595 ft 378 kts 264°
2026-05-04 01:00 53.69940 -4.72990 8567 ft 360 kts 263°
2026-05-04 01:00 53.69626 -4.77022 8551 ft 334 kts 263°
2026-05-04 01:01 53.69332 -4.80779 8517 ft 310 kts 263°
2026-05-04 01:01 53.69070 -4.84095 8505 ft 289 kts 264°
2026-05-04 01:01 53.68818 -4.87312 8462 ft 269 kts 264°
2026-05-04 01:01 53.68582 -4.90334 8379 ft 251 kts 264°
2026-05-04 01:02 53.68360 -4.93153 8289 ft 234 kts 264°
2026-05-04 01:02 53.68151 -4.95833 8176 ft 229 kts 264°
2026-05-04 01:02 53.67942 -4.98502 8050 ft 229 kts 265°
2026-05-04 01:02 53.67736 -5.01160 8004 ft 228 kts 264°
2026-05-04 01:03 53.67529 -5.03803 8009 ft 228 kts 264°
2026-05-04 01:03 53.67322 -5.06448 8022 ft 228 kts 264°
2026-05-04 01:03 53.67113 -5.09102 8014 ft 229 kts 264°
2026-05-04 01:03 53.66904 -5.11761 8030 ft 228 kts 264°
2026-05-04 01:04 53.66694 -5.14414 8021 ft 229 kts 264°
2026-05-04 01:04 53.66482 -5.17074 8026 ft 229 kts 264°
2026-05-04 01:04 53.66270 -5.19741 8028 ft 230 kts 264°
2026-05-04 01:04 53.66059 -5.22386 8022 ft 228 kts 264°
2026-05-04 01:05 53.65846 -5.25041 7995 ft 229 kts 263°
2026-05-04 01:05 53.65635 -5.27688 8026 ft 228 kts 264°
2026-05-04 01:05 53.65422 -5.30329 8034 ft 227 kts 264°
2026-05-04 01:05 53.65210 -5.32954 8004 ft 227 kts 264°
2026-05-04 01:06 53.64995 -5.35605 8005 ft 229 kts 263°
2026-05-04 01:06 53.64782 -5.38235 8040 ft 228 kts 265°
2026-05-04 01:06 53.64566 -5.40885 8022 ft 229 kts 264°
2026-05-04 01:06 53.64349 -5.43546 8017 ft 229 kts 264°
2026-05-04 01:07 53.64132 -5.46192 8033 ft 229 kts 265°
2026-05-04 01:07 53.63916 -5.48850 8040 ft 232 kts 263°
2026-05-04 01:07 53.63686 -5.51646 8015 ft 250 kts 264°
2026-05-04 01:07 53.63443 -5.54622 8036 ft 261 kts 264°
2026-05-04 01:08 53.63189 -5.57687 8019 ft 266 kts 263°
2026-05-04 01:08 53.62932 -5.60771 8069 ft 268 kts 264°
2026-05-04 01:08 53.62676 -5.63847 8053 ft 268 kts 264°
2026-05-04 01:08 53.62415 -5.66958 8020 ft 269 kts 264°
2026-05-04 01:09 53.62156 -5.70039 8029 ft 270 kts 263°
2026-05-04 01:09 53.61893 -5.73176 8034 ft 268 kts 263°
2026-05-04 01:09 53.61629 -5.76291 8017 ft 268 kts 263°
2026-05-04 01:09 53.61367 -5.79393 8025 ft 267 kts 263°
2026-05-04 01:10 53.61103 -5.82489 8025 ft 267 kts 263°
2026-05-04 01:10 53.60838 -5.85601 8028 ft 269 kts 263°
2026-05-04 01:10 53.60574 -5.88678 8018 ft 269 kts 264°
2026-05-04 01:10 53.60308 -5.91783 8026 ft 269 kts 264°
2026-05-04 01:11 53.60040 -5.94909 8036 ft 269 kts 263°
2026-05-04 01:11 53.59776 -5.97940 8015 ft 256 kts 264°
2026-05-04 01:11 53.59527 -6.00822 8039 ft 241 kts 263°
2026-05-04 01:11 53.59291 -6.03532 7995 ft 227 kts 263°
2026-05-04 01:12 53.59069 -6.06068 7968 ft 212 kts 263°
2026-05-04 01:12 53.58854 -6.08521 7988 ft 212 kts 264°
2026-05-04 01:12 53.58636 -6.11048 8058 ft 226 kts 263°
2026-05-04 01:12 53.58398 -6.13785 8090 ft 245 kts 264°
2026-05-04 01:13 53.58140 -6.16708 8013 ft 259 kts 263°
2026-05-04 01:13 53.57872 -6.19730 8005 ft 264 kts 263°
2026-05-04 01:13 53.57602 -6.22788 8009 ft 263 kts 263°
2026-05-04 01:13 53.57338 -6.25748 8012 ft 249 kts 263°
2026-05-04 01:14 53.57089 -6.28549 8005 ft 235 kts 263°
2026-05-04 01:14 53.56856 -6.31154 8010 ft 218 kts 263°
2026-05-04 01:14 53.56640 -6.33582 7995 ft 211 kts 263°
2026-05-04 01:14 53.56419 -6.36054 8021 ft 210 kts 263°
2026-05-04 01:15 53.56228 -6.38463 8039 ft 210 kts 265°
2026-05-04 01:15 53.56056 -6.40938 8002 ft 211 kts 265°
2026-05-04 01:15 53.55888 -6.43313 8155 ft 206 kts 265°
2026-05-04 01:15 53.55717 -6.45709 8241 ft 206 kts 264°
2026-05-04 01:16 53.55552 -6.48006 8161 ft 187 kts 264°
2026-05-04 01:16 53.55400 -6.50110 8022 ft 177 kts 265°
2026-05-04 01:16 53.55252 -6.52159 7758 ft 177 kts 265°
2026-05-04 01:16 53.55105 -6.54210 7327 ft 177 kts 265°
2026-05-04 01:17 53.54954 -6.56293 6877 ft 177 kts 265°
2026-05-04 01:17 53.54806 -6.58357 6427 ft 178 kts 266°
2026-05-04 01:17 53.54994 -6.60368 5831 ft 178 kts 302°
2026-05-04 01:17 53.55843 -6.61764 5300 ft 172 kts 339°
2026-05-04 01:18 53.57004 -6.61948 4816 ft 166 kts 16°
2026-05-04 01:18 53.57944 -6.60945 4420 ft 159 kts 51°
2026-05-04 01:18 53.58352 -6.59337 4164 ft 151 kts 82°
2026-05-04 01:18 53.58191 -6.57591 4032 ft 154 kts 112°
2026-05-04 01:19 53.57642 -6.56017 4133 ft 158 kts 119°
2026-05-04 01:19 53.57022 -6.54476 4147 ft 159 kts 123°
2026-05-04 01:19 53.56239 -6.53157 3983 ft 164 kts 145°
2026-05-04 01:19 53.55101 -6.52777 3488 ft 167 kts 183°
2026-05-04 01:20 53.54009 -6.53432 3640 ft 172 kts 214°
2026-05-04 01:20 53.53189 -6.54897 3830 ft 173 kts 233°
2026-05-04 01:20 53.52444 -6.56477 4010 ft 174 kts 231°
2026-05-04 01:20 53.51906 -6.57517 4062 ft 174 kts 228°
2026-05-04 01:21 53.51075 -6.59004 4077 ft 174 kts 227°
2026-05-04 01:21 53.50241 -6.60476 4059 ft 173 kts 227°
2026-05-04 01:21 53.49420 -6.61926 4030 ft 173 kts 227°
2026-05-04 01:21 53.48529 -6.63285 3974 ft 174 kts 206°
2026-05-04 01:22 53.47391 -6.63646 3853 ft 165 kts 167°
2026-05-04 01:22 53.46382 -6.62825 3929 ft 157 kts 131°
2026-05-04 01:22 53.45833 -6.61334 4014 ft 151 kts 103°
2026-05-04 01:22 53.45607 -6.59622 3837 ft 150 kts 96°
2026-05-04 01:23 53.45412 -6.57914 3452 ft 148 kts 95°
2026-05-04 01:23 53.45266 -6.56229 3098 ft 145 kts 92°
2026-05-04 01:23 53.45163 -6.54553 2949 ft 144 kts 91°
2026-05-04 01:23 53.45069 -6.52873 2946 ft 145 kts 91°
2026-05-04 01:24 53.44977 -6.51179 2982 ft 146 kts 91°
2026-05-04 01:24 53.44886 -6.49477 3000 ft 146 kts 91°
2026-05-04 01:24 53.44795 -6.47781 3006 ft 146 kts 90°
2026-05-04 01:24 53.44703 -6.46087 2845 ft 146 kts 91°
2026-05-04 01:25 53.44612 -6.44401 2529 ft 144 kts 91°
2026-05-04 01:25 53.44531 -6.42744 2284 ft 145 kts 89°
2026-05-04 01:25 53.44491 -6.40913 2079 ft 167 kts 89°
2026-05-04 01:25 53.44393 -6.39083 1783 ft 150 kts 93°
2026-05-04 01:26 53.44311 -6.37399 1419 ft 141 kts 91°
2026-05-04 01:26 53.44219 -6.35701 1150 ft 152 kts 93°
2026-05-04 01:26 53.44093 -6.33912 948 ft 156 kts 93°
2026-05-04 01:26 53.43984 -6.32048 703 ft 157 kts 92°
2026-05-04 01:27 53.43878 -6.30350 525 ft 138 kts 95°
2026-05-04 01:27 53.43778 -6.28795 371 ft 129 kts 95°
2026-05-04 01:27 53.43687 -6.27385 247 ft 116 kts 96°
2026-05-04 01:27 53.43614 -6.26166 230 ft 97 kts 97°
2026-05-04 01:28 53.43567 -6.25417 227 ft 36 kts 102°
2026-05-04 01:28 53.43505 -6.25152 228 ft 19 kts 119°
2026-05-04 01:28 53.43449 -6.24984 228 ft 5 kts 120°
2026-05-04 01:28 53.43427 -6.24921 227 ft 9 kts 120°
2026-05-04 01:29 53.43373 -6.24763 227 ft 19 kts 117°
2026-05-04 01:29 53.43353 -6.24538 227 ft 20 kts 94°
2026-05-04 01:29 53.43271 -6.24398 227 ft 20 kts 180°
2026-05-04 01:29 53.43192 -6.24535 227 ft 19 kts 282°
2026-05-04 01:30 53.43187 -6.24758 227 ft 19 kts 270°
2026-05-04 01:30 53.43189 -6.24859 227 ft 0 kts 268°
2026-05-04 01:30 53.43189 -6.24914 227 ft 17 kts 274°
2026-05-04 01:30 53.43188 -6.25008 227 ft 9 kts 265°
2026-05-04 01:31 53.43167 -6.25087 227 ft 7 kts 201°
2026-05-04 01:31 53.43127 -6.25089 227 ft 6 kts 183°
2026-05-04 01:31 53.43116 -6.25091 227 ft 0 kts 184°